Weather Roundup
Issued by NWS Chicago, IL

Home | Current Version | Previous Version | Graphics & Text | Print | Product List | Glossary On
Versions: 1 2 3 4 5 6 7 8 9 10 11 12 13 14 15 16 17 18 19 20 21 22 23 24 25 26 27 28 29 30 31 32 33 34 35 36 37 38 39 40 41 42 43 44 45 46 47 48 49 50
000
NZUS59 KLOT 242208
HRRLOT

CHICAGO AREA WEATHER ROUNDUP
NATIONAL WEATHER SERVICE CHICAGO/ROMEOVILLE IL
500 PM CDT TUE MAY 24 2016

NOTE: "FAIR" INDICATES FEW OR NO CLOUDS BELOW 12,000 FEET WITH NO
SIGNIFICANT WEATHER AND/OR OBSTRUCTIONS TO VISIBILITY.

* THESE STATIONS ARE NOT UNDER NWS QUALITY CONTROL. THEY ALSO MAY NOT
  REPORT WEATHER SUCH AS PRECIPITATION OR FOG.

ILZ005-006-012>014-019>023-242300-
NORTHEAST ILLINOIS

CITY           SKY/WX    TMP DP  RH WIND       PRES   REMARKS
OHARE          PTSUNNY   86  48  26 S20G25    29.92F HX  83
MIDWAY         MOSUNNY   89  46  22 SW17      29.93S HX  86
AURORA         MOSUNNY   87  54  32 S12       29.93F HX  85
LANSING*       MOSUNNY   86  47  26 S16G24    29.95S HX  83
JOLIET*        SUNNY     88  50  27 SW7       29.93F HX  85
WAUKEGAN       MOSUNNY   85  52  32 SW15      29.92F HX  83
DUPAGE AIRPORT SUNNY     87  49  26 S10G21    29.92F HX  84
WHEELING       SUNNY     87  47  24 SW13      29.94S HX  84
KANKAKEE*      SUNNY    N/A N/A N/A S14G22    29.96S
MORRIS*        SUNNY     88  51  27 SW10G18   29.91F HX  85
LEWIS AIRPORT* SUNNY     88  42  19 SW13G18   29.93F HX  84
$$

WIZ051-052-058>065-066-070>072-242300-
SOUTHEAST WISCONSIN

CITY           SKY/WX    TMP DP  RH WIND       PRES   REMARKS
MILWAUKEE      CLOUDY    84  55  36 SW14      29.92R HX  83
KENOSHA*       SUNNY     85  54  34 SW14G23   29.92F HX  83
RACINE*        MOSUNNY   77  53  43 S12       29.93F
BURLINGTON     MOSUNNY   83  52  33 SW12G20   29.92S HX  82
WAUKESHA       MOSUNNY   79  57  47 W8        29.94S HX  80
WEST BEND      PTSUNNY   79  59  50 W7        29.92S HX  80
$$

INZ001>003-010>013-019-020-242300-
NORTHWEST INDIANA

CITY           SKY/WX    TMP DP  RH WIND       PRES   REMARKS
GARY*          PTSUNNY   88  59  37 SW14      29.95S HX  87
MICHIGAN CITY* NOT AVBL
RENSSELAER*    NOT AVBL
VALPARAISO     CLOUDY    86  48  26 SW13G25   29.97S HX  83
$$

LMZ740>746-242300-
SOUTHERN LAKE MICHIGAN

STATION/POSITION TIME  SKY/WX   TEMP WIND        PRES    VSBY
                                AIR  DIR/SP/G
                 (UTC)          (F)  (DEG/KT/KT) (MB)    (MI)
HARRISON CRIB    2100            81  190/ 13/ 14   N/A
BURNHAM HARBOR   2200            86  210/ 10/ 19   N/A
CALUMET HARBOR   2100            85  200/  7/ 12 1013.3F
BURNS HARBOR     2100            83  210/ 12/ 20 1014.6S
MICHIGAN CITY    2100            81  210/ 14/ 16   N/A
$$

ABBREVIATIONS USED IN REMARKS
   TC - TEMPERATURE IN CELSIUS
  WCI - WIND CHILL INDEX
   HX - HEAT INDEX
  VSB - VISIBILITY
$$




USA.gov is the U.S. government's official web portal to all federal, state and local government web resources and services.